Weather History for KTZR - October, 2013

Change the Weather History Date:

Wednesday, October 9, 2013

  Actual Average Record
Temperature  
Mean Temperature 56 °F -  
Max Temperature 69 °F 67 °F 84 °F (2006)
Min Temperature 44 °F 46 °F 30 °F (2012)
Degree Days  
Heating Degree Days 8    
Growing Degree Days 6 (Base 50)    
Moisture  
Dew Point 45 °F    
Average Humidity 79    
Maximum Humidity 93    
Minimum Humidity 38    
Precipitation  
Precipitation 0.00 in - - ()
Sea Level Pressure  
Sea Level Pressure 30.23 in    
Wind  
Wind Speed 3 mph (ENE)    
Max Wind Speed 7 mph    
Max Gust Speed -    
Visibility 10 miles    
Events      
Averages and records for this station are not official NWS values.
T = Trace of Precipitation, MM = Missing Value Source: NWS Daily Summary

Daily Weather History Graph

Daily Weather History Graph

Search for Another Location

Airport or City:

Trip Planner

Search our weather history database for the weather conditions in past years. The results will help you decide how hot, cold, wet, or windy it might be!

Date:

Astronomy

Oct. 09, 2013 Rise Set
Actual Time 7:36 AM EDT 7:01 PM EDT
Civil Twilight 7:09 AM EDT 7:28 PM EDT
Nautical Twilight 6:38 AM EDT 8:00 PM EDT
Astronomical Twilight 6:07 AM EDT 8:31 PM EDT
Moon 12:31 PM EDT (10/9) 10:35 PM EDT (10/9)
Length of Visible Light 12h 18m
Length of Day
11h 24m
Waxing Crescent, 25% of the Moon is Illuminated
Oct 9
Waxing Crescent
Oct 11
First Quarter
Oct 18
Full
Oct 26
Last Quarter
Nov 3
New

Hourly Weather History & Observations

Time (EDT) Temp. Windchill Dew Point Humidity Pressure Visibility Wind Dir Wind Speed Gust Speed Precip Events Conditions
12:15 AM 49.3 °F - 45.1 °F 86% 30.26 in 10.0 mi NE 3.5 mph - N/A   Clear
12:35 AM 49.5 °F - 45.5 °F 86% 30.25 in 10.0 mi ENE 3.5 mph - N/A   Clear
12:55 AM 48.9 °F - 45.1 °F 87% 30.25 in 10.0 mi ENE 3.5 mph - N/A   Clear
1:15 AM 49.8 °F - 45.3 °F 84% 30.25 in 10.0 mi Calm Calm - N/A   Clear
1:35 AM 49.8 °F - 45.5 °F 85% 30.25 in 10.0 mi Calm Calm - N/A   Clear
1:55 AM 48.7 °F - 45.1 °F 87% 30.25 in 10.0 mi Calm Calm - N/A   Clear
2:15 AM 47.1 °F - 44.2 °F 90% 30.25 in 10.0 mi Calm Calm - N/A   Clear
2:35 AM 47.3 °F - 44.4 °F 90% 30.25 in 10.0 mi Calm Calm - N/A   Clear
2:55 AM 45.9 °F 44.6 °F 43.9 °F 93% 30.24 in 10.0 mi NE 3.5 mph - N/A   Clear
3:15 AM 47.1 °F - 44.1 °F 89% 30.24 in 10.0 mi Calm Calm - N/A   Clear
3:35 AM 45.1 °F - 43.2 °F 93% 30.23 in 10.0 mi Calm Calm - N/A   Clear
3:55 AM 46.2 °F 45.0 °F 43.3 °F 90% 30.23 in 10.0 mi ENE 3.5 mph - N/A   Clear
4:15 AM 47.8 °F - 43.7 °F 86% 30.23 in 10.0 mi Calm Calm - N/A   Clear
4:35 AM 47.7 °F - 43.3 °F 85% 30.23 in 10.0 mi East 4.6 mph - N/A   Clear
4:55 AM 48.2 °F - 43.5 °F 84% 30.23 in 10.0 mi East 3.5 mph - N/A   Clear
5:15 AM 48.4 °F - 43.7 °F 84% 30.23 in 10.0 mi East 4.6 mph - N/A   Clear
5:35 AM 48.4 °F - 43.9 °F 84% 30.24 in 10.0 mi East 3.5 mph - N/A   Clear
5:55 AM 47.3 °F - 43.7 °F 87% 30.24 in 10.0 mi ENE 3.5 mph - N/A   Clear
6:15 AM 47.7 °F - 43.7 °F 86% 30.24 in 10.0 mi East 3.5 mph - N/A   Clear
6:35 AM 47.5 °F - 43.3 °F 86% 30.24 in 10.0 mi ENE 3.5 mph - N/A   Clear
6:55 AM 46.2 °F 45.0 °F 43.0 °F 88% 30.25 in 10.0 mi NE 3.5 mph - N/A   Clear
7:15 AM 46.0 °F 43.9 °F 42.8 °F 88% 30.25 in 10.0 mi ENE 4.6 mph - N/A   Clear
7:47 AM 44.6 °F 43.1 °F 42.8 °F 93% 30.26 in 10.0 mi ENE 3.5 mph - N/A   Clear
8:47 AM 50.0 °F - 46.4 °F 87% 30.27 in 10.0 mi East 4.6 mph - N/A   Clear
9:47 AM 53.6 °F - 46.4 °F 77% 30.28 in 10.0 mi East 5.8 mph - N/A   Clear
10:47 AM 57.2 °F - 46.4 °F 67% 30.29 in 10.0 mi ESE 6.9 mph - N/A   Clear
11:50 AM 62.6 °F - 48.2 °F 59% 30.29 in 10.0 mi East 4.6 mph - N/A   Clear
12:50 PM 64.4 °F - 48.2 °F 56% 30.27 in 10.0 mi East 6.9 mph - N/A   Clear
1:50 PM 66.2 °F - 48.2 °F 52% 30.24 in 10.0 mi NE 5.8 mph - N/A   Clear
2:50 PM 68.0 °F - 44.6 °F 43% 30.22 in 10.0 mi NNE 5.8 mph - N/A   Clear
4:50 PM 69.8 °F - 44.6 °F 40% 30.20 in 10.0 mi East 6.9 mph - N/A   Clear
5:50 PM 69.8 °F - 42.8 °F 38% 30.20 in 10.0 mi East 3.5 mph - N/A   Clear
6:50 PM 66.2 °F - 42.8 °F 43% 30.20 in 10.0 mi ENE 3.5 mph - N/A   Clear
7:55 PM 59.7 °F - 43.7 °F 55% 30.20 in 10.0 mi ENE 3.5 mph - N/A   Clear
8:15 PM 55.4 °F - 44.6 °F 67% 30.20 in 10.0 mi ENE 3.5 mph - N/A   Clear
8:35 PM 53.2 °F - 45.1 °F 74% 30.20 in 10.0 mi ENE 3.5 mph - N/A   Clear
8:55 PM 51.1 °F - 45.5 °F 81% 30.21 in 10.0 mi ENE 3.5 mph - N/A   Clear
9:15 PM 51.6 °F - 44.8 °F 77% 30.21 in 10.0 mi Calm Calm - N/A   Clear
9:35 PM 51.3 °F - 44.8 °F 78% 30.21 in 10.0 mi Calm Calm - N/A   Clear
9:55 PM 49.1 °F - 44.6 °F 84% 30.21 in 10.0 mi Calm Calm - N/A   Clear
10:15 PM 51.1 °F - 44.1 °F 77% 30.21 in 10.0 mi Calm Calm - N/A   Clear
10:35 PM 47.8 °F - 44.4 °F 88% 30.21 in 10.0 mi Calm Calm - N/A   Clear
10:55 PM 46.4 °F - 44.2 °F 92% 30.21 in 10.0 mi Calm Calm - N/A   Clear
11:15 PM 46.6 °F - 43.7 °F 90% 30.21 in 10.0 mi Calm Calm - N/A   Clear
11:35 PM 46.8 °F - 43.7 °F 89% 30.20 in 10.0 mi NNE 3.5 mph - N/A   Clear
11:55 PM 47.3 °F - 43.7 °F 87% 30.20 in 10.0 mi Calm Calm - N/A   Clear